User: anonymous
Location: Ithaca
(42.4410°N, 76.4970°W)
Time: 09:20:12
(UTC-04:00)
Language:

Cosmos 1271 Rocket - Orbit

View from above orbital plane
View from above orbital plane
View from above satellite
View from above satellite

Ground track
Ground track

The orbit data is extracted from the following two-line orbital elements,

1 12465U 81046B   14109.12983684  .00006848  00000-0  42032-3 0  2200
2 12465 081.2335 268.2491 0035433 210.1549 149.7638 15.09446137792886
Epoch (UTC): 19 April 2014 03:06:57
Eccentricity: 0.0035433
inclination: 81.2335°
perigee height: 513 km
apogee height: 562 km
right ascension of ascending node: 268.2491°
argument of perigee: 210.1549°
revolutions per day: 15.09446137
mean anomaly at epoch: 149.7638°
orbit number at epoch: 79288

The dashed part of the orbit path shows where the satellite is in the earth's shadow,  

DLR